Location: Spring Mountain Observatory
(40.2501°N, 75.4333°W)
Time: 16:55:13
(UTC-05:00)

ISS - Visible Passes

Search period start: 23 January 2018 00:00
Search period end: 02 February 2018 00:00
Orbit: 402 x 407 km, 51.6° (Epoch: 23 January)

Date Brightness Start Highest point End Pass type
(mag) Time Alt. Az. Time Alt. Az. Time Alt. Az.
23 Jan -1.8 18:29:34 10° S 18:31:11 15° SE 18:31:11 15° SE visible
24 Jan -2.3 19:12:12 10° SW 19:14:09 33° SW 19:14:09 33° SW visible
25 Jan -3.1 18:20:09 10° SSW 18:23:11 38° SE 18:24:21 27° E visible
25 Jan -0.2 19:56:52 10° W 19:57:01 11° W 19:57:01 11° W visible
26 Jan -2.9 19:04:08 10° WSW 19:07:07 43° NW 19:07:07 43° NW visible
27 Jan -3.8 18:11:37 10° SW 18:14:52 83° NW 18:17:07 19° NE visible
27 Jan -0.5 19:49:28 10° WNW 19:49:47 11° WNW 19:49:47 11° WNW visible
28 Jan -2.1 18:56:27 10° W 18:59:10 24° NNW 18:59:43 23° N visible
29 Jan -2.7 18:03:35 10° W 18:06:39 37° NNW 18:09:35 11° NE visible
29 Jan -0.6 19:42:13 10° NW 19:42:14 10° NW 19:42:14 10° NW visible
30 Jan -1.5 18:49:02 10° WNW 18:51:09 16° NNW 18:52:02 15° N visible
31 Jan -1.8 17:55:55 10° WNW 17:58:31 21° NNW 18:01:06 10° NNE visible
01 Feb -1.3 18:41:43 10° NW 18:43:11 12° N 18:44:11 11° N visible
